Flag for Canada Weather past 2 weeks in Grande Prairie, Alberta, Canada

Now
63 °F

Scattered clouds.


Feels Like: 63 °F
Forecast: 34 / 62 °F
Wind: 6 mph from Northeast

Location: Grande Prairie

Current Time: Aug 22, 2014 at 4:04:15 PM

Latest Report: Aug 22, 2014 at 3:00 PM


Visibility: 25 mi

Pressure: 30.39 "Hg

Humidity: 34%

Dew point: 34 °F

Location of Grande PrairieLocation

Historic Weather in Grande Prairie — Graph

°F

Grande Prairie temperature yesterday

Maximum temperature yesterday: 64 °F (at 4:00 PM)
Minimum temperature yesterday: 46 °F (at 3:00 AM)
Average temperature yesterday: 53 °F

Past Weeks' High & Low Weather Summary

 TemperatureHumidityPressure
High88 °F (Aug 12, 6:00 PM)94% (Aug 13, 3:00 AM)30.41 "Hg (Aug 13, 3:00 AM)
Low34 °F (Aug 22, 7:00 AM)21% (Aug 7, 5:00 PM)29.70 "Hg (Aug 19, 2:00 AM)
Average65 °F58%29.99 "Hg
* Reported Aug 7 3:00 PM — Aug 22 3:00 PM, Grande Prairie, Weather by CustomWeather, © 2014

Note: Actual official high and low records may vary slightly from our data, if they occured in-between our weather recording intervals... More about our weather records

Advertising

Grande Prairie weather history for previous 24 hours

 ConditionsComfort  
Time TempWeatherWind HumidityBarometerVisibility
3:00 PM
Aug 22
63 °FScattered clouds.6 mph34%30.39 "Hg25 mi
2:00 PM63 °FScattered clouds.3 mph37%30.40 "Hg25 mi
1:00 PM59 °FPassing clouds.8 mph36%30.40 "Hg25 mi
12:00 PM57 °FPassing clouds.8 mph44%30.40 "Hg25 mi
11:00 AM55 °FPassing clouds.6 mph47%30.41 "Hg25 mi
10:00 AM52 °FPassing clouds.5 mph58%30.41 "Hg25 mi
9:00 AM46 °FPassing clouds.2 mph76%30.40 "Hg25 mi
8:00 AM39 °FPassing clouds.5 mph93%30.40 "Hg25 mi
7:00 AM34 °FChilly.6 mph93%30.40 "Hg25 mi
6:00 AM36 °FPassing clouds.7 mph87%30.38 "Hg25 mi
5:00 AM36 °FClear.5 mph87%30.37 "Hg25 mi
4:00 AM36 °FClear.6 mph93%30.36 "Hg25 mi
3:00 AM37 °FClear.6 mph87%30.35 "Hg25 mi
2:00 AM37 °FClear.6 mph87%30.35 "Hg25 mi
1:00 AM41 °FClear.5 mph87%30.34 "Hg25 mi
12:00 AM43 °FPassing clouds.3 mph81%30.33 "Hg25 mi
11:00 PM
Aug 21
46 °FPassing clouds.6 mph76%30.32 "Hg25 mi
10:00 PM50 °FPassing clouds.5 mph62%30.31 "Hg25 mi
9:00 PM55 °FPartly sunny.8 mph55%30.30 "Hg25 mi
8:00 PM59 °FPartly sunny.8 mph39%30.29 "Hg25 mi
7:00 PM61 °FPartly sunny.10 mph36%30.27 "Hg25 mi
6:00 PM61 °FPartly sunny.13 mph36%30.26 "Hg25 mi
5:00 PM61 °FPartly sunny.12 mph36%30.27 "Hg25 mi
4:00 PM64 °FPartly sunny.10 mph34%30.26 "Hg25 mi
Weather by CustomWeather, © 2014

See weather overviewHow to use our weather pages